sat.trackr.live / text

‹ back to catalog

HULIANWANG DIGUI-101

NORAD 66417 · 2025-258F

PAYLOAD ACTIVE UNKNOWN

§ Identity

Operator
Country
PRC
Launch date
2025-11-10
Launch site
WSC
Launch vehicle
Mass (kg)
RCS (m²)

External: N2YO · Heavens-Above · Gunter

§ Orbital elements

Epoch: 2026-05-25T01:24:14.050944Z

Period
108.33 min
Inclination
50.0019°
Eccentricity
0.0000869
Mean motion
13.29323540 rev/d
Perigee alt
1,148.7 km
Apogee alt
1,150.0 km
Semi-major
7,527.5 km
B*
8.3343e-5
RAAN
18.5840°
Arg perigee
52.4250°
Mean anomaly
307.6701°
Rev number
2,666

§ Raw data

HULIANWANG DIGUI-1011 66417U 25258F   26145.05849596 -.00000085  00000+0  83343-4 0  99982 66417  50.0019  18.5840 0000869  52.4250 307.6701 13.29323540 26664

JSON: /api/v1/satellites/66417 · /tle

For live sub-satellite position, see the globe view (requires WebGL).

§ Visibility from observer

Set your observer location to see the next 7 days of passes ≥ 10°. The values pass through the URL so the page stays shareable.

No JS? Fill the form by hand. The geolocation button needs JavaScript.